Location: Andrest
(43.3200°N, 0.0641°E)
Time: 21:20:28
(UTC+00:00)

CENTAUR R/B - Pass Details

Date: 01 December 2020
Orbit: 750 x 1438 km, 63.4° (Epoch: 11 January)

Event Time Altitude Azimuth Distance (km) Brightness Sun altitude
Rises 19:48:16 0° 235° (SW) 3,407 6.0 -36.3°
Reaches altitude 10° 19:50:39 10° 241° (WSW) 2,549 5.2 -36.7°
Enters shadow 19:54:58 42° 278° (W) 1,351 3.5 -37.5°
